Current weather by "City, St" or "zip code"  
 
Advertise Here

Current Conditions: Brewster Field Airport, NE

Fair


17.0 F

Last Updated on Jan 27 2021, 1:35 pm CST
Humidity: 76%
Wind Speed: N 0.0 mph
Barometer 30.35 in
Dewpoint: 10.9 F
Visibility: 10.00 mi
Precip: --
Heat Index: NA
Wind Chill: NA
Current conditions at:

Brewster Field Airport, NE (KHDE)

Lat: 40.45 Lon: 99.33333

Local Radar Image active severe weather and emergency alerts image image weather storm and storm spotter reports image weather observation monitoring service image
Local
Radar
Active
Alerts
Storm Reports Obs
Monitoring

Sign-up For Email & Text Message Weather Alert Notification Services


Advertise Here

Observation History for Brewster Field Airport, NE


Time Wind
(mph)
Vis
(mi)
Weather Precip (in) Temperature (F) Relative
Humidity
Wind
Chill
(F)
Heat
Index
(F)
Pressure
Air Dwpt altimeter
(in)
sea level
(mb)
Rmks
1:35 pm CST N 0.0 10.00 Fair -- 17.0 10.9 76% NA NA 30.35 M
12:55 pm CST N 0.0 10.00 Fair -- 15.0 10.2 80% NA NA 30.36 M
12:35 pm CST NW 3.5 10.00 Fair -- 13.0 9.5 84% NA NA 30.36 M
11:55 am CST N 0.0 10.00 Fair -- 12.0 9.5 89% NA NA 30.37 M
11:35 am CST N 0.0 10.00 Fair -- NULL % NA NA 30.37 M
10:55 am CST N 0.0 7.00 Fair -- NULL % NA NA 30.37 M
10:35 am CST N 0.0 10.00 Fair -- NULL % NA NA 30.36 M
9:55 am CST N 0.0 3.00 Light Snow -- NULL % NA NA 30.34 M
8:55 am CST N 0.0 3.00 Light Snow -- 4.0 0.9 86% NA NA 30.31 M
7:55 am CST N 0.0 10.00 Fair -- 0.0 -3.8 84% NA NA 30.28 M
6:55 am CST N 4.6 7.00 Fair -- 4.0 1.4 88% -5 NA 30.25 M
5:55 am CST N 4.6 10.00 Fair -- 6.0 3.4 90% -3 NA 30.24 M
4:55 am CST N 6.9 10.00 Light Snow -- 8.0 5.0 89% -3 NA 30.23 M
4:35 am CST N 4.6 4.00 Light Snow -- 9.0 7.2 91% 1 NA 30.23 M
3:55 am CST N 5.8 5.00 Light Snow -- 12.0 9.0 88% 3 NA 30.22 M
2:55 am CST NE 3.5 10.00 Light Snow -- 14.0 10.8 88% NA NA 30.20 M
2:35 am CST NE 5.8 5.00 Light Snow -- 14.0 11.1 89% 5 NA 30.20 M
1:55 am CST NE 9.2 5.00 Light Snow -- 14.0 11.5 89% 2 NA 30.18 M
12:55 am CST NE 9.2 5.00 Fog/Mist -- 15.0 12.2 89% 3 NA 30.16 M
12:35 am CST NE 11.5 4.00 Light Snow -- 15.0 12.2 89% 2 NA 30.16 M
11:55 pm CST NE 10.4 7.00 Light Snow -- 16.0 13.1 89% 4 NA 30.15 M
11:35 pm CST NE 15.0 10.00 Overcast -- 16.0 13.1 89% 1 NA 30.15 M
10:55 pm CST NE 11.5 7.00 Light Snow 00.01 16.0 13.3 89% 3 NA 30.14 M
9:55 pm CST NE 6.9 1.25 Light Snow -- 17.0 14.0 89% 8 NA 30.14 M

Regional Weather Observation


Brewster Field Airport, NE (KHDE)

Fair
17.0 F

Kearney, Kearney Municipal Airport, NE (KEAR)

Fair
29.0 F

Broken Bow, Broken Bow Municipal Airport, NE (KBBW)

Fair
18.0 F

Hastings, Hastings Municipal Airport, NE (KHSI)

Fair
16.0 F

McCook, McCook Municipal Airport, NE (KMCK)

Mostly Cloudy
14.0 F

Grand Island, Central Nebraska Regional Airport, NE (KGRI)

Fair
16.0 F